[[{"header":{"parameterUnit":"m.s-1","parameterCategory":1,"la1":30.2991,"la2":30.254,"lo1":-89.0895,"lo2":-89.0444,"dy":0.0017,"dx":0.0017,"nx":28,"ny":28,"refTime":"2025-11-19T09:00:00:Z","depth":0,"parameterNumber":2,"parameterNumberName":"U-component_of_WINDS"},"data":[0,0,0,0,0,0,0,0,0,0,0,0,0,0,0,0,0,0,0,0,0,0,0,0,0,0,0,0,0,0,0,0,0,0,0,0,0,0,0,0,0,0,0,0,0,0,0,0,0,0,0,0,0,0,0,0,0,0,-0.9398,-0.9398,0,-0.9376,-0.9375,-0.9375,-0.9345,-0.9344,-0.9343,-0.9343,-0.932,-0.932,-0.932,0,0,0,0,0,0,0,0,0,0,0,0,0,-0.9413,-0.9413,-0.9398,-0.9398,-0.9397,-0.9376,-0.9375,-0.9375,-0.9345,-0.9344,-0.9343,-0.9343,-0.932,-0.932,-0.932,0,0,0,0,0,0,0,0,0,0,0,0,0,-0.94,-0.9413,-0.9398,-0.938,-0.9378,-0.9376,-0.9375,-0.9375,-0.9345,-0.9344,-0.9343,-0.9342,-0.932,-0.932,-0.932,-0.9334,0,0,-0.9319,-0.9319,0,0,0,0,0,0,0,0,-0.9401,-0.94,-0.9382,-0.9381,-0.9379,-0.9362,-0.9372,-0.9361,-0.9345,-0.9357,-0.9343,-0.9342,-0.9335,-0.9333,-0.9331,-0.9333,-0.9332,-0.9319,-0.9319,-0.9319,-0.9319,0,0,0,0,0,0,0,-0.9402,-0.94,-0.9389,-0.9382,-0.938,-0.9372,-0.9369,-0.937,-0.935,-0.9356,-0.9354,-0.9352,-0.9333,-0.9331,-0.933,-0.9331,-0.9319,-0.9319,-0.9319,-0.9319,-0.9342,-0.9343,0,0,0,0,0,0,-0.9405,-0.9401,-0.939,-0.9388,-0.9388,-0.9372,-0.9369,-0.9368,-0.935,-0.9347,-0.9352,-0.935,-0.9332,-0.933,-0.9329,-0.9343,-0.9319,-0.9319,-0.9318,-0.9342,-0.9342,-0.9343,0,0,0,0,0,0,-0.9406,-0.9405,-0.9391,-0.9394,-0.9392,-0.9373,-0.9372,-0.9368,-0.9366,-0.9348,-0.9344,-0.9353,-0.9331,-0.9329,-0.9332,-0.9342,-0.9318,-0.9318,-0.9341,-0.9342,-0.9343,-0.9373,0,0,0,0,0,0,-0.9406,-0.9405,-0.9411,-0.9395,-0.9392,-0.9395,-0.9372,-0.9368,-0.9365,-0.9363,-0.9348,-0.9344,-0.933,-0.9333,-0.9332,-0.9341,-0.9318,-0.934,-0.9341,-0.9343,-0.9371,-0.9375,-0.9378,0,0,0,0,0,-0.9407,-0.942,-0.9411,-0.941,-0.9398,-0.9396,-0.9394,-0.9378,-0.9366,-0.9371,-0.936,-0.9345,-0.9341,-0.9334,-0.9333,-0.9342,-0.9339,-0.9341,-0.9342,-0.9369,-0.9374,-0.9378,0,0,0,0,0,0,-0.9438,-0.9418,-0.9407,-0.9416,-0.9408,-0.9391,-0.9397,-0.9383,-0.9378,-0.9376,-0.9355,-0.9352,-0.9358,-0.935,-0.9342,-0.9354,-0.9338,-0.9339,-0.9358,-0.9363,-0.9366,-0.9368,-0.9318,0,0,0,0,0,-0.9446,-0.9446,-0.9428,-0.9437,-0.9433,-0.9416,-0.9414,-0.9402,-0.9393,-0.9389,-0.9377,-0.9369,-0.9365,-0.9364,-0.936,-0.937,-0.9365,-0.9375,-0.9379,-0.9382,-0.9383,-0.9386,-0.939,-0.9349,-0.9349,-0.9349,0,0,-0.9462,-0.9451,-0.9452,-0.9443,-0.9435,-0.9435,-0.9413,-0.9414,-0.9413,-0.9389,-0.9391,-0.9382,-0.9371,-0.9377,-0.938,-0.9371,-0.9394,-0.9384,-0.9387,-0.9386,-0.9388,-0.9392,-0.9396,-0.935,-0.935,-0.935,0,0,-0.9491,-0.9483,-0.9489,-0.9481,-0.947,-0.9458,-0.9459,-0.9444,-0.9437,-0.9439,-0.942,-0.9419,-0.9414,-0.9407,-0.9402,-0.9427,-0.9413,-0.9427,-0.9445,-0.9449,-0.9452,-0.9455,-0.9462,-0.9465,-0.9428,-0.9428,-0.9428,0,-0.9512,-0.9511,-0.9493,-0.9495,-0.9491,-0.9469,-0.9474,-0.9468,-0.9456,-0.9454,-0.9444,-0.9437,-0.9428,-0.9431,-0.9437,-0.9435,-0.9435,-0.9428,-0.9453,-0.9455,-0.9458,-0.9465,-0.9468,-0.943,-0.943,-0.943,-0.9429,0,-0.9537,-0.9537,-0.9543,-0.9531,-0.9528,-0.9532,-0.9514,-0.9513,-0.9501,-0.949,-0.9491,-0.948,-0.9472,-0.9473,-0.9461,-0.9474,-0.9469,-0.9457,-0.944,-0.9464,-0.947,-0.9472,-0.9432,-0.9432,-0.9431,-0.9431,0,0,-0.9585,-0.9563,-0.9565,-0.9559,-0.9545,-0.9544,-0.9546,-0.9539,-0.9538,-0.953,-0.9531,-0.9527,-0.9515,-0.951,-0.9497,-0.95,-0.9519,-0.9487,-0.9487,-0.9492,-0.9531,-0.9539,-0.9543,-0.951,-0.951,-0.951,-0.9531,0,-0.961,-0.9613,-0.9597,-0.9603,-0.9602,-0.9581,-0.9582,-0.9573,-0.9563,-0.956,-0.9548,-0.9545,-0.953,-0.9527,-0.9529,-0.9516,-0.9526,-0.9515,-0.9509,-0.9509,-0.9511,-0.9546,-0.9556,-0.9576,-0.9534,-0.9534,-0.9534,0,-0.964,-0.9633,-0.964,-0.9624,-0.9623,-0.9625,-0.9616,-0.9614,-0.9603,-0.9595,-0.9589,-0.9574,-0.9574,-0.9559,-0.9558,-0.9551,-0.9547,-0.9541,-0.9541,-0.9539,-0.9523,-0.9544,-0.9582,-0.9584,-0.9538,-0.9538,-0.9538,0,-0.9673,-0.9665,-0.9668,-0.9664,-0.9646,-0.9647,-0.9639,-0.9627,-0.9624,-0.9616,-0.9613,-0.9606,-0.9602,-0.9596,-0.9579,-0.957,-0.958,-0.9564,-0.9573,-0.9573,-0.9575,-0.9575,-0.9612,-0.9575,-0.9575,-0.9575,-0.9575,0,-0.9702,-0.9706,-0.9682,-0.9684,-0.9688,-0.9669,-0.9674,-0.9664,-0.9653,-0.9652,-0.9633,-0.9632,-0.9611,-0.9607,-0.9594,-0.9595,-0.9593,-0.9586,-0.9582,-0.9587,-0.9588,-0.9584,-0.9582,-0.9575,-0.9575,-0.9575,-0.9575,0,-0.9739,-0.9723,-0.9724,-0.9707,-0.9702,-0.9706,-0.9691,-0.9691,-0.9679,-0.9677,-0.9676,-0.9657,-0.9652,-0.9635,-0.9625,-0.9616,-0.962,-0.9614,-0.9624,-0.9622,-0.9631,-0.963,-0.9665,-0.9669,-0.9631,-0.9631,-0.9632,0,-0.9758,-0.9761,-0.9744,-0.9741,-0.9735,-0.9731,-0.9727,-0.9709,-0.9705,-0.9692,-0.9694,-0.9687,-0.968,-0.9672,-0.9657,-0.965,-0.9642,-0.9655,-0.9641,-0.9645,-0.9641,-0.9641,-0.964,-0.9658,-0.9659,-0.9659,-0.966,0,-0.9794,-0.9786,-0.9781,-0.9773,-0.9768,-0.9761,-0.9753,-0.9752,-0.9731,-0.9728,-0.9722,-0.9717,-0.9707,-0.97,-0.969,-0.9681,-0.9666,-0.9664,-0.9666,-0.967,-0.9675,-0.9671,-0.9632,-0.9663,-0.9663,-0.9663,-0.9663,-0.9662,-0.9822,-0.9823,-0.981,-0.9805,-0.9797,-0.9789,-0.9788,-0.9776,-0.9771,-0.9762,-0.9751,-0.9746,-0.9733,-0.9718,-0.971,-0.9705,-0.9698,-0.97,-0.97,-0.9701,-0.9703,-0.9677,-0.9704,-0.9704,-0.9703,-0.9703,-0.9703,0,-0.9855,-0.9846,-0.9842,-0.983,-0.9826,-0.9813,-0.9803,-0.98,-0.9796,-0.9786,-0.9779,-0.9772,-0.9765,-0.9749,-0.974,-0.9739,-0.9732,-0.9738,-0.9737,-0.9735,-0.9711,-0.971,-0.9743,-0.9743,-0.9743,-0.9743,-0.9743,-0.9743,-0.9872,-0.9873,-0.9863,-0.9859,-0.985,-0.9845,-0.984,-0.9833,-0.9824,-0.9817,-0.9811,-0.9801,-0.9788,-0.9778,-0.977,-0.9766,-0.9763,-0.977,-0.9763,-0.9741,-0.9737,-0.9733,-0.9732,-0.977,-0.977,-0.9787,-0.9787,-0.9787]},{"header":{"parameterUnit":"m.s-1","parameterCategory":1,"la1":30.2991,"la2":30.254,"lo1":-89.0895,"lo2":-89.0444,"dy":0.0017,"dx":0.0017,"nx":28,"ny":28,"refTime":"2025-11-19T09:00:00:Z","depth":0,"parameterNumber":3,"parameterNumberName":"V-component_of_WINDS"},"data":[0,0,0,0,0,0,0,0,0,0,0,0,0,0,0,0,0,0,0,0,0,0,0,0,0,0,0,0,0,0,0,0,0,0,0,0,0,0,0,0,0,0,0,0,0,0,0,0,0,0,0,0,0,0,0,0,0,0,-0.5126,-0.5126,0,-0.5141,-0.5141,-0.5141,-0.5152,-0.5152,-0.5152,-0.5152,-0.5167,-0.5167,-0.5168,0,0,0,0,0,0,0,0,0,0,0,0,0,-0.5105,-0.5106,-0.5126,-0.5126,-0.5126,-0.5141,-0.5141,-0.5141,-0.5152,-0.5152,-0.5152,-0.5152,-0.5167,-0.5167,-0.5168,0,0,0,0,0,0,0,0,0,0,0,0,0,-0.5117,-0.5106,-0.5126,-0.5133,-0.5134,-0.5141,-0.5141,-0.5141,-0.5152,-0.5152,-0.5152,-0.5152,-0.5167,-0.5167,-0.5168,-0.5168,0,0,-0.5169,-0.5169,0,0,0,0,0,0,0,0,-0.5116,-0.5117,-0.5132,-0.5133,-0.5134,-0.5145,-0.5139,-0.515,-0.5152,-0.5145,-0.5152,-0.5152,-0.516,-0.5161,-0.5163,-0.5169,-0.5169,-0.5169,-0.517,-0.517,-0.517,0,0,0,0,0,0,0,-0.5115,-0.5117,-0.5132,-0.5132,-0.5133,-0.5135,-0.5137,-0.5141,-0.5151,-0.5146,-0.5147,-0.5148,-0.516,-0.5163,-0.5164,-0.517,-0.5169,-0.517,-0.517,-0.517,-0.5173,-0.5173,0,0,0,0,0,0,-0.5113,-0.5116,-0.5131,-0.5132,-0.5125,-0.5136,-0.5138,-0.5141,-0.5151,-0.5153,-0.5148,-0.5149,-0.5162,-0.5163,-0.5164,-0.5163,-0.517,-0.517,-0.5171,-0.5173,-0.5173,-0.5172,0,0,0,0,0,0,-0.5113,-0.5115,-0.5131,-0.5124,-0.5127,-0.5136,-0.514,-0.5141,-0.5144,-0.5153,-0.5155,-0.5149,-0.5162,-0.5163,-0.5166,-0.5164,-0.517,-0.5171,-0.5173,-0.5173,-0.5173,-0.5162,0,0,0,0,0,0,-0.5112,-0.5114,-0.5115,-0.5124,-0.5127,-0.5133,-0.514,-0.5141,-0.5145,-0.5146,-0.5154,-0.5156,-0.5162,-0.5165,-0.5167,-0.5164,-0.5171,-0.5173,-0.5173,-0.5173,-0.5162,-0.5161,-0.516,0,0,0,0,0,-0.5111,-0.5112,-0.5115,-0.5117,-0.5128,-0.5133,-0.5135,-0.5142,-0.5144,-0.5145,-0.515,-0.5156,-0.5164,-0.5166,-0.5167,-0.5165,-0.5174,-0.5173,-0.5173,-0.5163,-0.5161,-0.516,0,0,0,0,0,0,-0.5104,-0.5114,-0.5117,-0.5121,-0.5126,-0.5135,-0.5136,-0.514,-0.5145,-0.5146,-0.5154,-0.5156,-0.5157,-0.5162,-0.5163,-0.5164,-0.5169,-0.5169,-0.5161,-0.516,-0.5159,-0.5157,-0.5172,0,0,0,0,0,-0.5102,-0.5106,-0.5114,-0.5117,-0.5119,-0.5127,-0.513,-0.5134,-0.514,-0.5142,-0.5148,-0.5153,-0.5156,-0.5158,-0.5162,-0.5163,-0.5164,-0.5162,-0.5161,-0.516,-0.5159,-0.5157,-0.5156,-0.5171,-0.5171,-0.5171,0,0,-0.51,-0.5106,-0.5108,-0.5115,-0.512,-0.5122,-0.5129,-0.5132,-0.5134,-0.5143,-0.5145,-0.5149,-0.5155,-0.5156,-0.5157,-0.516,-0.5155,-0.5159,-0.5158,-0.5158,-0.5157,-0.5155,-0.5154,-0.5171,-0.5171,-0.5171,0,0,-0.5096,-0.5102,-0.5103,-0.5107,-0.5113,-0.5118,-0.5118,-0.5126,-0.5128,-0.5131,-0.5137,-0.5138,-0.5145,-0.5148,-0.515,-0.5144,-0.5149,-0.5145,-0.5139,-0.5137,-0.5136,-0.5135,-0.5131,-0.5129,-0.5145,-0.5145,-0.5145,0,-0.5092,-0.5097,-0.5104,-0.5106,-0.5108,-0.5115,-0.5116,-0.5119,-0.5126,-0.5127,-0.513,-0.5136,-0.5141,-0.5141,-0.5139,-0.5142,-0.5141,-0.5145,-0.5135,-0.5134,-0.5134,-0.513,-0.5128,-0.5144,-0.5144,-0.5145,-0.5145,0,-0.5091,-0.5094,-0.5094,-0.5099,-0.5102,-0.5103,-0.5109,-0.511,-0.5114,-0.5118,-0.5119,-0.5124,-0.5128,-0.5128,-0.5133,-0.5129,-0.513,-0.5134,-0.5139,-0.5131,-0.5128,-0.5127,-0.5144,-0.5144,-0.5144,-0.5144,0,0,-0.5085,-0.5092,-0.5092,-0.5093,-0.5099,-0.5101,-0.5101,-0.5104,-0.5104,-0.5108,-0.5108,-0.5111,-0.5114,-0.5117,-0.5121,-0.512,-0.5111,-0.5124,-0.5124,-0.512,-0.5105,-0.5101,-0.5099,-0.5114,-0.5114,-0.5114,-0.5103,0,-0.5081,-0.5083,-0.5087,-0.5087,-0.5088,-0.5094,-0.5094,-0.5097,-0.5099,-0.51,-0.5103,-0.5105,-0.511,-0.5111,-0.511,-0.5113,-0.5108,-0.5114,-0.5113,-0.5113,-0.511,-0.5098,-0.5094,-0.5084,-0.5102,-0.5102,-0.5102,0,-0.5078,-0.508,-0.508,-0.5082,-0.5083,-0.5083,-0.5085,-0.5086,-0.5088,-0.509,-0.5092,-0.5096,-0.5095,-0.51,-0.5098,-0.5101,-0.51,-0.5102,-0.5101,-0.5101,-0.5106,-0.5095,-0.5081,-0.5079,-0.51,-0.51,-0.5101,0,-0.5071,-0.5074,-0.5074,-0.5075,-0.5079,-0.5078,-0.508,-0.5082,-0.5083,-0.5084,-0.5084,-0.5085,-0.5085,-0.5085,-0.5089,-0.5092,-0.5085,-0.5091,-0.5086,-0.5085,-0.5084,-0.5084,-0.5068,-0.5085,-0.5085,-0.5085,-0.5085,0,-0.5067,-0.5066,-0.507,-0.507,-0.5068,-0.5072,-0.507,-0.5072,-0.5074,-0.5073,-0.5078,-0.5076,-0.5082,-0.508,-0.5083,-0.5079,-0.508,-0.5081,-0.5081,-0.508,-0.5079,-0.5079,-0.508,-0.5085,-0.5085,-0.5085,-0.5085,0,-0.506,-0.5063,-0.5062,-0.5065,-0.5065,-0.5064,-0.5065,-0.5064,-0.5066,-0.5065,-0.5065,-0.5068,-0.5067,-0.507,-0.507,-0.5071,-0.5065,-0.5068,-0.5064,-0.5065,-0.5058,-0.5058,-0.5041,-0.5038,-0.5058,-0.5058,-0.5058,0,-0.5056,-0.5055,-0.5057,-0.5056,-0.5057,-0.5057,-0.5056,-0.506,-0.5059,-0.506,-0.5058,-0.5057,-0.5056,-0.5053,-0.5055,-0.5054,-0.5055,-0.5049,-0.5055,-0.5053,-0.5053,-0.5052,-0.5051,-0.5048,-0.5048,-0.5047,-0.5047,0,-0.5049,-0.505,-0.5049,-0.5048,-0.5048,-0.5047,-0.5047,-0.5046,-0.505,-0.5048,-0.5047,-0.5046,-0.5044,-0.5042,-0.504,-0.5041,-0.5044,-0.5045,-0.5043,-0.5042,-0.5039,-0.5038,-0.506,-0.5046,-0.5046,-0.5046,-0.5046,-0.5046,-0.5043,-0.5041,-0.5041,-0.5039,-0.5039,-0.5038,-0.5036,-0.5037,-0.5036,-0.5034,-0.5036,-0.5033,-0.5032,-0.5031,-0.503,-0.5027,-0.503,-0.5028,-0.5027,-0.5026,-0.5024,-0.504,-0.5027,-0.5027,-0.5027,-0.5027,-0.5027,0,-0.5035,-0.5034,-0.5032,-0.5031,-0.5029,-0.5031,-0.5031,-0.5029,-0.5026,-0.5025,-0.5023,-0.5019,-0.5016,-0.5017,-0.5014,-0.5011,-0.5012,-0.501,-0.501,-0.5009,-0.5023,-0.5024,-0.5009,-0.5009,-0.5009,-0.5009,-0.5009,-0.5009,-0.503,-0.5026,-0.5026,-0.5022,-0.5021,-0.5018,-0.5017,-0.5015,-0.5014,-0.5009,-0.5006,-0.5006,-0.5005,-0.5002,-0.4998,-0.4998,-0.4996,-0.4993,-0.4994,-0.5007,-0.5009,-0.501,-0.5011,-0.4993,-0.4993,-0.498,-0.498,-0.498]}]]